• Em Portugal
  • Lista de países
  • Para 7 dias
  • Temperatura da água
  • Mapas de satélite
  • Mapa do tempo
  • Widgets de tempo
  • user-avatar
    Iniciar Sessão

    Previsão horária em Linz

    Hoje, 18 Julho, Quarta-feira

    Tempo Temperatura Precipitação Vento Pressão Humidade
    00:00 +17°C° 0,4 mm 3 m/s 733 mmHg 89%
    01:00 +17°C° 0 mm 3 m/s 732 mmHg 90%
    02:00 +16°C° 0,1 mm 3 m/s 732 mmHg 91%
    03:00 +16°C° 0,1 mm 3 m/s 733 mmHg 92%
    04:00 +16°C° 0,1 mm 2 m/s 733 mmHg 93%
    05:00 +17°C° 0,1 mm 2 m/s 733 mmHg 92%
    06:00 +18°C° 0,1 mm 3 m/s 733 mmHg 90%
    07:00 +20°C° 0 mm 2 m/s 733 mmHg 90%
    08:00 +21°C° 0,6 mm 3 m/s 733 mmHg 85%
    09:00 +22°C° 0,6 mm 3 m/s 733 mmHg 80%
    10:00 +23°C° 0,6 mm 4 m/s 733 mmHg 75%
    11:00 +25°C° 0,6 mm 4 m/s 733 mmHg 72%
    12:00 +25°C° 0,6 mm 4 m/s 733 mmHg 70%
    13:00 +26°C° 0 mm 4 m/s 733 mmHg 66%
    14:00 +26°C° 1 mm 4 m/s 733 mmHg 70%
    15:00 +25°C° 1 mm 3 m/s 733 mmHg 74%
    16:00 +25°C° 1 mm 3 m/s 733 mmHg 78%
    17:00 +24°C° 0,7 mm 2 m/s 733 mmHg 80%
    18:00 +23°C° 0,7 mm 2 m/s 733 mmHg 83%
    19:00 +21°C° 0,7 mm 2 m/s 733 mmHg 85%
    20:00 +21°C° 0,2 mm 1 m/s 734 mmHg 87%
    21:00 +20°C° 0,2 mm 1 m/s 734 mmHg 88%
    22:00 +19°C° 0,2 mm 1 m/s 734 mmHg 90%
    23:00 +19°C° 0 mm 1 m/s 734 mmHg 91%

    Amanhã, 19 Julho, Quinta-feira

    Tempo Temperatura Precipitação Vento Pressão Humidade
    00:00 +18°C° 0 mm 1 m/s 734 mmHg 92%
    01:00 +18°C° 0 mm 1 m/s 734 mmHg 92%
    02:00 +18°C° 0 mm 1 m/s 734 mmHg 93%
    03:00 +16°C° 0 mm 1 m/s 734 mmHg 93%
    04:00 +16°C° 0 mm 1 m/s 734 mmHg 94%
    05:00 +18°C° 0 mm 1 m/s 734 mmHg 92%
    06:00 +19°C° 0 mm 1 m/s 734 mmHg 90%
    07:00 +20°C° 0 mm 1 m/s 734 mmHg 88%
    08:00 +22°C° 0,1 mm 1 m/s 734 mmHg 79%
    09:00 +23°C° 0,1 mm 2 m/s 734 mmHg 71%
    10:00 +25°C° 0,1 mm 2 m/s 734 mmHg 63%
    11:00 +26°C° 0 mm 2 m/s 734 mmHg 59%
    12:00 +27°C° 0 mm 2 m/s 734 mmHg 54%
    13:00 +27°C° 0 mm 2 m/s 734 mmHg 50%
    14:00 +27°C° 0 mm 2 m/s 734 mmHg 50%
    15:00 +27°C° 0 mm 2 m/s 734 mmHg 51%
    16:00 +28°C° 0 mm 2 m/s 734 mmHg 51%
    17:00 +26°C° 0 mm 2 m/s 733 mmHg 59%
    18:00 +25°C° 0 mm 1 m/s 733 mmHg 67%
    19:00 +23°C° 0 mm 1 m/s 733 mmHg 75%
    20:00 +22°C° 0 mm 1 m/s 734 mmHg 78%
    21:00 +20°C° 0 mm 1 m/s 734 mmHg 81%
    22:00 +19°C° 0 mm 1 m/s 734 mmHg 83%
    23:00 +18°C° 0 mm 1 m/s 734 mmHg 85%

    Depois de amanhã, 20 Julho, Sexta-feira

    Tempo Temperatura Precipitação Vento Pressão Humidade
    00:00 +18°C° 0 mm 1 m/s 734 mmHg 86%
    01:00 +16°C° 0 mm 1 m/s 734 mmHg 87%
    02:00 +16°C° 0 mm 1 m/s 734 mmHg 88%
    03:00 +15°C° 0 mm 1 m/s 734 mmHg 90%
    04:00 +15°C° 0 mm 1 m/s 734 mmHg 91%
    05:00 +18°C° 0 mm 1 m/s 734 mmHg 85%
    06:00 +17°C° 0 mm 0 m/s 734 mmHg 79%
    07:00 +19°C° 0 mm 0 m/s 734 mmHg 74%
    08:00 +23°C° 0 mm 1 m/s 734 mmHg 68%
    09:00 +25°C° 0 mm 1 m/s 734 mmHg 62%
    10:00 +27°C° 0 mm 1 m/s 734 mmHg 55%
    11:00 +28°C° 0 mm 1 m/s 733 mmHg 52%
    12:00 +29°C° 0 mm 1 m/s 733 mmHg 49%
    13:00 +30°C° 0 mm 1 m/s 733 mmHg 47%
    14:00 +29°C° 0 mm 1 m/s 733 mmHg 47%
    15:00 +29°C° 0 mm 1 m/s 732 mmHg 48%
    16:00 +29°C° 0 mm 1 m/s 732 mmHg 48%
    17:00 +28°C° 0 mm 1 m/s 732 mmHg 57%
    18:00 +26°C° 0 mm 1 m/s 732 mmHg 65%
    19:00 +24°C° 0 mm 1 m/s 732 mmHg 73%
    20:00 +23°C° 0 mm 1 m/s 732 mmHg 75%
    21:00 +22°C° 0 mm 1 m/s 732 mmHg 77%
    22:00 +20°C° 0 mm 1 m/s 732 mmHg 79%
    23:00 +20°C° 0 mm 1 m/s 732 mmHg 79%

    21 Julho, Sábado

    Tempo Temperatura Precipitação Vento Pressão Humidade
    00:00 +20°C° 0 mm 1 m/s 731 mmHg 79%
    01:00 +19°C° 0 mm 1 m/s 731 mmHg 79%
    02:00 +19°C° 0 mm 1 m/s 731 mmHg 79%
    03:00 +19°C° 0 mm 1 m/s 731 mmHg 79%
    04:00 +18°C° 0 mm 1 m/s 731 mmHg 80%
    05:00 +19°C° 0 mm 1 m/s 731 mmHg 78%
    06:00 +19°C° 0 mm 0 m/s 731 mmHg 77%
    07:00 +20°C° 0 mm 0 m/s 731 mmHg 75%
    08:00 +21°C° 0,3 mm 0 m/s 731 mmHg 75%
    09:00 +22°C° 0,3 mm 0 m/s 731 mmHg 75%
    10:00 +24°C° 0,3 mm 1 m/s 731 mmHg 74%
    11:00 +24°C° 1,4 mm 1 m/s 731 mmHg 80%
    12:00 +23°C° 1,4 mm 1 m/s 731 mmHg 85%
    13:00 +21°C° 1,4 mm 2 m/s 731 mmHg 91%
    14:00 +23°C° 0,8 mm 1 m/s 731 mmHg 89%
    15:00 +23°C° 0,8 mm 1 m/s 731 mmHg 87%
    16:00 +23°C° 0,8 mm 1 m/s 731 mmHg 85%
    17:00 +23°C° 0,5 mm 1 m/s 731 mmHg 87%
    18:00 +22°C° 0,5 mm 1 m/s 731 mmHg 89%
    19:00 +22°C° 0,5 mm 1 m/s 731 mmHg 91%
    20:00 +21°C° 0,2 mm 1 m/s 731 mmHg 92%
    21:00 +20°C° 0,2 mm 1 m/s 731 mmHg 94%
    22:00 +18°C° 0,2 mm 2 m/s 731 mmHg 95%
    23:00 +19°C° 0,1 mm 1 m/s 731 mmHg 95%

    22 Julho, Domingo

    Tempo Temperatura Precipitação Vento Pressão Humidade
    00:00 +18°C° 0,1 mm 1 m/s 731 mmHg 95%
    01:00 +18°C° 0,1 mm 1 m/s 731 mmHg 95%
    02:00 +18°C° 0,1 mm 1 m/s 731 mmHg 95%
    03:00 +18°C° 0,1 mm 1 m/s 731 mmHg 95%
    04:00 +16°C° 0,1 mm 1 m/s 731 mmHg 94%
    05:00 +18°C° 0,1 mm 1 m/s 731 mmHg 94%
    06:00 +19°C° 0,1 mm 1 m/s 731 mmHg 93%
    07:00 +19°C° 0,1 mm 2 m/s 731 mmHg 92%
    08:00 +19°C° 0,2 mm 2 m/s 731 mmHg 89%
    09:00 +20°C° 0,2 mm 2 m/s 731 mmHg 86%
    10:00 +21°C° 0,2 mm 2 m/s 731 mmHg 83%
    11:00 +22°C° 0,4 mm 3 m/s 731 mmHg 81%
    12:00 +24°C° 0,4 mm 3 m/s 730 mmHg 79%
    13:00 +24°C° 0,4 mm 3 m/s 730 mmHg 77%
    14:00 +24°C° 0,8 mm 3 m/s 730 mmHg 79%
    15:00 +24°C° 0,8 mm 3 m/s 730 mmHg 82%
    16:00 +22°C° 0,8 mm 3 m/s 730 mmHg 84%
    17:00 +22°C° 0,8 mm 3 m/s 730 mmHg 87%
    18:00 +21°C° 0,8 mm 2 m/s 731 mmHg 89%
    19:00 +20°C° 0,8 mm 2 m/s 731 mmHg 92%
    20:00 +19°C° 0,9 mm 2 m/s 731 mmHg 93%
    21:00 +19°C° 0,9 mm 2 m/s 731 mmHg 95%
    22:00 +18°C° 0,9 mm 2 m/s 732 mmHg 97%
    23:00 +17°C° 0,7 mm 2 m/s 732 mmHg 97%

    23 Julho, Segunda-feira

    Tempo Temperatura Precipitação Vento Pressão Humidade
    00:00 +17°C° 0,7 mm 2 m/s 732 mmHg 97%
    01:00 +17°C° 0,7 mm 2 m/s 732 mmHg 97%
    02:00 +17°C° 0,4 mm 2 m/s 732 mmHg 97%
    03:00 +17°C° 0,4 mm 2 m/s 732 mmHg 97%
    04:00 +17°C° 0,4 mm 2 m/s 733 mmHg 97%
    05:00 +17°C° 0,4 mm 2 m/s 733 mmHg 97%
    06:00 +18°C° 0,4 mm 1 m/s 733 mmHg 97%
    07:00 +18°C° 0,4 mm 1 m/s 733 mmHg 97%
    08:00 +19°C° 0,2 mm 1 m/s 733 mmHg 96%
    09:00 +19°C° 0,2 mm 1 m/s 733 mmHg 95%
    10:00 +19°C° 0,2 mm 1 m/s 734 mmHg 94%
    11:00 +20°C° 0,3 mm 2 m/s 733 mmHg 88%
    12:00 +21°C° 0,3 mm 2 m/s 733 mmHg 82%
    13:00 +24°C° 0,3 mm 2 m/s 733 mmHg 76%
    14:00 +24°C° 0,3 mm 2 m/s 733 mmHg 74%
    15:00 +25°C° 0,3 mm 2 m/s 733 mmHg 72%
    16:00 +25°C° 0,3 mm 2 m/s 733 mmHg 70%
    17:00 +24°C° 0,3 mm 1 m/s 733 mmHg 75%
    18:00 +23°C° 0,3 mm 1 m/s 733 mmHg 81%
    19:00 +22°C° 0,3 mm 1 m/s 734 mmHg 87%
    20:00 +21°C° 0 mm 1 m/s 734 mmHg 89%
    21:00 +20°C° 0 mm 1 m/s 734 mmHg 90%
    22:00 +19°C° 0 mm 1 m/s 735 mmHg 92%
    23:00 +19°C° 0 mm 1 m/s 734 mmHg 93%
    Mostrar mais